Regional Weather Roundup
Issued by NWS

Home | Current Version | Previous Version | Text Only | Print | Product List | Glossary On
Versions: 1 2 3 4 5 6 7 8 9 10 11 12 13 14 15 16 17 18 19 20 21 22 23 24 25 26 27 28 29 30 31 32 33 34 35 36 37 38 39 40 41 42 43 44 45 46 47 48 49 50
000
ASUS43 KLMK 180010
RWRKY
KENTUCKY REGIONAL WEATHER ROUNDUP
NATIONAL WEATHER SERVICE LOUISVILLE KY
700 PM EST SUN DEC 17 2017

NOTE "FAIR" INDICATES FEW OR NO CLOUDS BELOW 12,000 FEET
WITH NO SIGNIFICANT WEATHER AND/OR OBSTRUCTIONS TO VISIBILITY.

KYZ001>023-026-027-061>063-070>075-180100-
WESTERN AND SOUTH CENTRAL KENTUCKY

CITY           SKY/WX    TMP DP  RH WIND       PRES   REMARKS
PADUCAH        CLOUDY    46  41  82 S3        30.11R
HENDERSON      CLOUDY    43  41  93 S3        30.12R
OWENSBORO      CLOUDY    42  41  96 SE6       30.12R FOG
HOPKINSVILLE   CLOUDY    44  44 100 SE3       30.11S FOG
BOWLING GREEN  CLOUDY    44  43  96 SE3       30.14R FOG
GLASGOW        CLOUDY    43  40  87 S3        30.13S
$$

KYZ024-025-028>034-038-045-046-053-180100-
NORTH CENTRAL KENTUCKY

CITY           SKY/WX    TMP DP  RH WIND       PRES   REMARKS
LOUISVILLE/SDF CLOUDY    44  39  82 SE9       30.12R
LOUISVILLE/LOU CLOUDY    43  41  93 SE5       30.13R
FORT KNOX      CLOUDY    41  41  98 SE6       30.10R
$$

KYZ035>037-039>044-047>052-055>060-089>105-180100-
NORTHEAST KENTUCKY

CITY           SKY/WX    TMP DP  RH WIND       PRES   REMARKS
LEXINGTON      CLOUDY    40  37  89 SE3       30.13S FOG
COVINGTON      CLOUDY    44  33  65 S7        30.09S
FRANKFORT      CLOUDY    41  38  89 SE5       30.12R
$$

KYZ054-064>069-076>088-106>120-180100-
SOUTHEAST KENTUCKY

CITY           SKY/WX    TMP DP  RH WIND       PRES   REMARKS
JACKSON        CLOUDY    39  37  92 CALM      30.12F
LONDON         CLOUDY    42  35  76 CALM      30.12S
SOMERSET       CLOUDY    43  34  70 CALM      30.15R
MIDDLESBORO    CLOUDY    43  36  76 SE6       30.15R
MONTICELLO     CLOUDY    44  37  76 NE9       30.15R
$$





USA.gov is the U.S. government's official web portal to all federal, state and local government web resources and services.